Weather History for KORE - October, 2013

Change the Weather History Date:

Friday, October 4, 2013

  Actual Average Record
Temperature  
Mean Temperature 55 °F -  
Max Temperature 63 °F 62 °F 82 °F (2007)
Min Temperature 48 °F 37 °F 25 °F (1996)
Degree Days  
Heating Degree Days 10    
Growing Degree Days 5 (Base 50)    
Moisture  
Dew Point 53 °F    
Average Humidity 89    
Maximum Humidity 97    
Minimum Humidity 75    
Precipitation  
Precipitation 0.31 in - - ()
Sea Level Pressure  
Sea Level Pressure 30.08 in    
Wind  
Wind Speed 1 mph (North)    
Max Wind Speed 6 mph    
Max Gust Speed -    
Visibility 9 miles    
Events Rain    
Averages and records for this station are not official NWS values.
T = Trace of Precipitation, MM = Missing Value Source: NWS Daily Summary

Daily Weather History Graph

Daily Weather History Graph

Search for Another Location

Airport or City:

Trip Planner

Search our weather history database for the weather conditions in past years. The results will help you decide how hot, cold, wet, or windy it might be!

Date:

Astronomy

Oct. 04, 2013 Rise Set
Actual Time 6:49 AM EDT 6:24 PM EDT
Civil Twilight 6:21 AM EDT 6:53 PM EDT
Nautical Twilight 5:49 AM EDT 7:25 PM EDT
Astronomical Twilight 5:16 AM EDT 7:58 PM EDT
Moon 6:22 AM EDT (10/4) 6:04 PM EDT (10/4)
Length of Visible Light 12h 31m
Length of Day
11h 35m
Waning Crescent, 0% of the Moon is Illuminated
Oct 4
Waning Crescent
Oct 4
New
Oct 11
First Quarter
Oct 18
Full
Oct 26
Last Quarter

Hourly Weather History & Observations

Time (EDT) Temp. Dew Point Humidity Pressure Visibility Wind Dir Wind Speed Gust Speed Precip Events Conditions
12:52 AM 50.0 °F 48.0 °F 93% 30.09 in 10.0 mi Calm Calm - N/A   Clear
1:52 AM 50.0 °F 48.0 °F 93% 30.09 in 10.0 mi Calm Calm - N/A   Clear
2:52 AM 51.1 °F 48.9 °F 92% 30.07 in 10.0 mi Calm Calm - N/A   Clear
3:52 AM 50.0 °F 48.9 °F 96% 30.07 in 10.0 mi Calm Calm - N/A   Clear
4:52 AM 48.0 °F 46.9 °F 96% 30.07 in 10.0 mi Calm Calm - N/A   Clear
5:52 AM 48.9 °F 48.0 °F 97% 30.07 in 10.0 mi Calm Calm - 0.01 in   Overcast
6:52 AM 51.1 °F 48.9 °F 92% 30.08 in 10.0 mi Calm Calm - N/A   Overcast
7:52 AM 52.0 °F 50.0 °F 93% 30.09 in 10.0 mi Calm Calm - N/A   Overcast
8:52 AM 54.0 °F 51.1 °F 90% 30.10 in 10.0 mi Calm Calm - 0.00 in   Overcast
9:41 AM 55.4 °F 53.6 °F 94% 30.10 in 1.8 mi ENE 4.6 mph - 0.06 in Rain Heavy Rain
9:45 AM 55.4 °F 53.6 °F 94% 30.10 in 3.0 mi ENE 3.5 mph - 0.06 in Rain Light Rain
9:52 AM 55.9 °F 54.0 °F 93% 30.10 in 10.0 mi Calm Calm - 0.06 in Rain Light Rain
10:52 AM 57.9 °F 54.0 °F 87% 30.10 in 10.0 mi NNW 3.5 mph - 0.00 in   Overcast
11:17 AM 57.2 °F 55.4 °F 94% 30.09 in 0.8 mi Calm Calm - 0.10 in Rain Heavy Rain
11:24 AM 57.2 °F 55.4 °F 94% 30.09 in 2.5 mi Calm Calm - 0.10 in Rain Light Rain
11:31 AM 57.2 °F 53.6 °F 88% 30.10 in 10.0 mi Calm Calm - 0.10 in   Overcast
11:52 AM 57.9 °F 55.0 °F 90% 30.11 in 8.0 mi Calm Calm - 0.11 in Rain Rain
12:52 PM 57.9 °F 54.0 °F 87% 30.09 in 10.0 mi North 3.5 mph - 0.13 in Rain Light Rain
1:52 PM 62.1 °F 55.0 °F 78% 30.07 in 10.0 mi Calm Calm - 0.00 in   Mostly Cloudy
2:15 PM 62.6 °F 55.4 °F 77% 30.05 in 10.0 mi Calm Calm - N/A   Overcast
2:48 PM 62.6 °F 55.4 °F 77% 30.05 in 10.0 mi North 4.6 mph - N/A   Overcast
2:52 PM 62.1 °F 55.0 °F 78% 30.06 in 10.0 mi North 3.5 mph - N/A   Overcast
3:52 PM 62.1 °F 55.0 °F 78% 30.06 in 10.0 mi WNW 3.5 mph - N/A   Overcast
4:07 PM 62.6 °F 55.4 °F 77% 30.05 in 10.0 mi NNW 4.6 mph - N/A   Overcast
4:52 PM 62.1 °F 54.0 °F 75% 30.06 in 10.0 mi North 4.6 mph - N/A   Overcast
5:52 PM 61.0 °F 55.9 °F 83% 30.06 in 10.0 mi North 5.8 mph - N/A   Overcast
6:09 PM 60.8 °F 55.4 °F 82% 30.06 in 10.0 mi North 3.5 mph - N/A   Overcast
6:52 PM 60.1 °F 55.9 °F 86% 30.07 in 10.0 mi North 3.5 mph - N/A   Overcast
7:52 PM 59.0 °F 55.9 °F 90% 30.07 in 10.0 mi Calm Calm - N/A   Overcast
8:52 PM 59.0 °F 55.9 °F 90% 30.08 in 10.0 mi Calm Calm - N/A   Mostly Cloudy
9:52 PM 59.0 °F 55.9 °F 90% 30.07 in 10.0 mi Calm Calm - N/A   Overcast
10:45 PM 57.2 °F 55.4 °F 94% 30.07 in 10.0 mi Calm Calm - N/A   Mostly Cloudy
10:52 PM 57.9 °F 55.9 °F 93% 30.07 in 10.0 mi NE 3.5 mph - N/A   Overcast
11:05 PM 57.2 °F 55.4 °F 94% 30.08 in 10.0 mi NW 4.6 mph - N/A   Overcast
11:52 PM 57.9 °F 55.9 °F 93% 30.08 in 10.0 mi Calm Calm - N/A   Overcast